Regional Weather Roundup
Issued by NWS Kansas City/Pleasant Hill, MO

Home | Current Version | Previous Version | Text Only | Print | Product List | Glossary On
Versions: 1 2 3 4 5 6 7 8 9 10 11 12 13 14 15 16 17 18 19 20 21 22 23 24 25 26 27 28 29 30 31 32 33 34 35 36 37 38 39 40 41 42 43 44 45 46 47 48 49 50
212
ASUS43 KEAX 210110
RWREAX

WEATHER ROUNDUP FOR EASTERN KANSAS AND NORTHWEST MISSOURI
NATIONAL WEATHER SERVICE KANSAS CITY/PLEASANT HILL MO
800 PM CDT WED SEP 20 2017

KSZ040-057-103>105-MOZ028-029-037-043-210200-
...KANSAS CITY METROPOLITAN AREA...

CITY           SKY/WX    TMP DP  RH WIND       PRES   REMARKS
K.C. INTL      MOCLDY    80  74  81 SE7       29.83R
K.C. DOWNTOWN  MOCLDY    87  75  67 E5        29.81R HX  96
LEES SUMMIT    CLOUDY    85  75  72 S7        29.84R HX  93
OLATHE - IXD   MOCLDY    83  74  74 SE5       29.83R
OLATHE - OJC   PTCLDY    81  76  84 S5        29.83R
LAWRENCE       MOCLDY    81  75  82 E3        29.80S

$$

MOZ001>008-011>017-020>025-030>033-038>040-044>046-053-054-210200-
...NORTHERN AND CENTRAL MISSOURI...

CITY           SKY/WX    TMP DP  RH WIND       PRES   REMARKS
ST. JOSEPH     MOCLDY    80  73  79 SE3       29.81S
MOSBY          MOCLDY    81  73  78 CALM      29.82S
WARRENSBURG    CLEAR     81  72  74 CALM      29.84R
WHITEMAN AFB   PTCLDY    82  80  92 S3        29.83R HX  93
CLINTON        CLEAR     81  73  78 S3        29.84R
SEDALIA        CLEAR     81  74  79 SE7       29.85S
WARSAW         NOT AVBL
CHILLICOTHE      N/A     80  78  94 CALM      29.84R
KIRKSVILLE     MOCLDY    83  72  69 SW5       29.85R THUNDER

$$

MOZ041-047>049-056>058-063>065-088>090-097-210200-
...EASTERN AND SOUTHERN MISSOURI...

CITY           SKY/WX    TMP DP  RH WIND       PRES   REMARKS
ST. LOUIS INTL CLEAR     89  69  51 S10       29.88S HX  93
SPIRIT OF STL  CLEAR     87  69  54 S5        29.86S HX  91
COLUMBIA       CLEAR     81  71  71 S8        29.86S
JEFFERSON CITY CLEAR     84  69  60 SE7       29.84S
ROLLA          CLEAR     80  68  66 SE7       29.91R
OSAGE BEACH    CLEAR     82  72  71 SE5       29.88R
SPRINGFIELD    CLEAR     82  69  64 S8        29.88R
BRANSON        PTCLDY    82  68  61 S9        29.92S
JOPLIN         CLEAR     84  72  67 S9        29.84S
WEST PLAINS    PTCLDY    83  71  67 S9        29.95R

$$

IAZ060-094-KSZ022-034>040-054-083-096-NEZ052-066-093-210200-
...KANSAS...SOUTHEAST NEBRASKA AND IOWA...

CITY           SKY/WX    TMP DP  RH WIND       PRES   REMARKS
TOPEKA         MOCLDY    82  75  79 CALM      29.80S
MANHATTAN      CLEAR     78  66  66 N3        29.80R
EMPORIA        MOCLDY    81  71  71 SE6       29.81R
CHANUTE        PTCLDY    82  73  74 S7        29.82R
WICHITA        PTCLDY    85  69  58 S9        29.78S
OMAHA          CLEAR     67  55  65 N7        29.86R
LINCOLN        CLEAR     68  53  58 NE8       29.87S
FALLS CITY     CLOUDY    78  65  63 N5        29.81S
LAMONI         CLEAR     80  71  74 S5        29.83S
DES MOINES     PTCLDY    78  61  55 N5        29.82S

$$





USA.gov is the U.S. government's official web portal to all federal, state and local government web resources and services.